logo tempoitalia

Diretta Meteo West Woodward, Stati Uniti (USA)lunedì 31 agosto ore 01:30

Mappa
Sereno 29 °C Sereno 24 Ore: T.min 26 T.max 40
Ponente Sud Km/h 27.8 Punto di rugiada: 11 °C Umidità: 32% Visibilità: 10 Km
Il sole sorge alle: 07:08 Il sole tramonta alle: 20:07
31 Agosto 2026 01:30 tempo osservato: Sereno Sereno 29 32 1015 vento: Nord S 27.8
31 Agosto 2026 01:10 tempo osservato: Sereno Sereno 30 30 1015 vento: Nord S 25.9
31 Agosto 2026 00:50 tempo osservato: Sereno Sereno 31 29 1015 vento: Nord S 25.9
31 Agosto 2026 00:30 tempo osservato: Sereno Sereno 31 29 1014 vento: Nord S 29.6
31 Agosto 2026 00:10 tempo osservato: Sereno Sereno 31 29 1014 vento: Nord S 33.3
30 Agosto 2026 23:50 tempo osservato: Sereno Sereno 31 29 1014 vento: Nord S 33.3
30 Agosto 2026 23:30 tempo osservato: Sereno Sereno 31 29 1014 vento: Nord S 29.6
30 Agosto 2026 23:10 tempo osservato: Sereno Sereno 31 29 1014 vento: Nord S 29.6
30 Agosto 2026 22:50 tempo osservato: Sereno Sereno 31 29 1014 vento: Nord S/SE 27.8
30 Agosto 2026 22:30 tempo osservato: Sereno Sereno 31 29 1014 vento: Nord S/SE 24
30 Agosto 2026 22:10 tempo osservato: Sereno Sereno 32 27 1014 vento: Nord S/SE 20.3
30 Agosto 2026 21:50 tempo osservato: Sereno Sereno 32 27 1014 vento: Nord S 24
30 Agosto 2026 21:30 tempo osservato: Sereno Sereno 33 27 1014 vento: Nord S/SE 22.2
30 Agosto 2026 21:10 tempo osservato: Sereno Sereno 33 27 1013 vento: Nord S/SE 22.2
30 Agosto 2026 20:50 tempo osservato: Sereno Sereno 33 27 1013 vento: Nord S/SE 20.3
30 Agosto 2026 20:30 tempo osservato: Sereno Sereno 34 26 1012 vento: Nord S 20.3
30 Agosto 2026 20:10 tempo osservato: Sereno Sereno 35 24 1012 vento: Nord S 20.3
30 Agosto 2026 19:50 tempo osservato: Sereno Sereno 36 23 1012 vento: Nord S/SE 20.3
30 Agosto 2026 19:30 tempo osservato: Sereno Sereno 37 22 1012 vento: Nord S 24
30 Agosto 2026 19:10 tempo osservato: Sereno Sereno 37 22 1012 vento: Nord S 24
30 Agosto 2026 18:50 tempo osservato: Sereno Sereno 38 21 1012 vento: Nord S 22.2
30 Agosto 2026 18:30 tempo osservato: Sereno Sereno 38 21 1012 vento: Nord S 25.9
30 Agosto 2026 18:10 tempo osservato: Sereno Sereno 39 18 1012 vento: Nord S/SO 22.2
30 Agosto 2026 17:50 tempo osservato: Sereno Sereno 39 20 1012 vento: Nord S/SO 20.3
30 Agosto 2026 17:30 tempo osservato: Sereno Sereno 39 18 1012 vento: Nord S 29.6
30 Agosto 2026 17:10 tempo osservato: Sereno Sereno 39 20 1012 vento: Nord S 27.8
30 Agosto 2026 16:50 tempo osservato: Sereno Sereno 39 18 1012 vento: Nord S 25.9
30 Agosto 2026 16:30 tempo osservato: Sereno Sereno 40 17 1012 vento: Nord S/SO 29.6
30 Agosto 2026 16:10 tempo osservato: Sereno Sereno 40 17 1012 vento: Nord S 31.5
30 Agosto 2026 15:50 tempo osservato: Sereno Sereno 39 18 1012 vento: Nord S/SO 24
30 Agosto 2026 15:30 tempo osservato: Sereno Sereno 40 17 1013 vento: Nord S 29.6
30 Agosto 2026 15:10 tempo osservato: Sereno Sereno 39 18 1013 vento: Nord S 27.8
30 Agosto 2026 14:50 tempo osservato: Sereno Sereno 39 18 1013 vento: Nord S 24
30 Agosto 2026 14:30 tempo osservato: Sereno Sereno 40 17 1014 vento: Nord S 29.6
30 Agosto 2026 14:10 tempo osservato: Sereno Sereno 39 18 1014 vento: Nord S 27.8
30 Agosto 2026 13:50 tempo osservato: Sereno Sereno 39 18 1014 vento: Nord S 29.6
30 Agosto 2026 13:30 tempo osservato: Sereno Sereno 39 18 1014 vento: Nord S/SO 31.5
30 Agosto 2026 13:10 tempo osservato: Sereno Sereno 38 22 1014 vento: Nord S/SO 25.9
30 Agosto 2026 12:50 tempo osservato: Sereno Sereno 38 22 1015 vento: Nord S/SO 27.8
30 Agosto 2026 12:30 tempo osservato: Sereno Sereno 37 23 1015 vento: Nord S/SO 33.3
30 Agosto 2026 12:10 tempo osservato: Sereno Sereno 37 23 1015 vento: Nord S 33.3
30 Agosto 2026 11:50 tempo osservato: Sereno Sereno 36 25 1015 vento: Nord S/SO 27.8
30 Agosto 2026 11:30 tempo osservato: Sereno Sereno 35 26 1015 vento: Nord S/SO 24
30 Agosto 2026 11:10 tempo osservato: Sereno Sereno 35 26 1015 vento: Nord S/SO 25.9
30 Agosto 2026 10:50 tempo osservato: Sereno Sereno 34 28 1015 vento: Nord S 29.6
30 Agosto 2026 10:30 tempo osservato: Sereno Sereno 33 29 1015 vento: Nord S/SO 27.8
30 Agosto 2026 10:10 tempo osservato: Sereno Sereno 32 33 1015 vento: Nord S/SO 24
30 Agosto 2026 09:50 tempo osservato: Sereno Sereno 31 33 1015 vento: Nord S/SO 29.6
30 Agosto 2026 09:30 tempo osservato: Sereno Sereno 30 37 1015 vento: Nord S 29.6
30 Agosto 2026 09:10 tempo osservato: Sereno Sereno 29 39 1015 vento: Nord S 27.8
30 Agosto 2026 08:50 tempo osservato: Sereno Sereno 29 39 1016 vento: Nord S/SO 24
30 Agosto 2026 08:30 tempo osservato: Sereno Sereno 28 42 1015 vento: Nord S/SO 24
30 Agosto 2026 08:10 tempo osservato: Sereno Sereno 27 44 1015 vento: Nord S/SO 22.2
30 Agosto 2026 07:50 tempo osservato: Sereno Sereno 27 42 1015 vento: Nord S 20.3
30 Agosto 2026 07:30 tempo osservato: Sereno Sereno 26 44 1015 vento: Nord S 25.9
30 Agosto 2026 07:10 tempo osservato: Sereno Sereno 26 44 1015 vento: Nord S 25.9
30 Agosto 2026 06:50 tempo osservato: Sereno Sereno 26 44 1014 vento: Nord S 25.9
30 Agosto 2026 06:30 tempo osservato: Sereno Sereno 27 42 1014 vento: Nord S 31.5
30 Agosto 2026 06:10 tempo osservato: Sereno Sereno 27 42 1014 vento: Nord S 31.5
30 Agosto 2026 05:50 tempo osservato: Sereno Sereno 27 39 1014 vento: Nord S 27.8
30 Agosto 2026 05:30 tempo osservato: Sereno Sereno 27 39 1014 vento: Nord S 27.8
30 Agosto 2026 05:10 tempo osservato: Sereno Sereno 27 39 1014 vento: Nord S 27.8
30 Agosto 2026 04:50 tempo osservato: Sereno Sereno 27 39 1014 vento: Nord S 31.5
30 Agosto 2026 04:30 tempo osservato: Sereno Sereno 28 34 1014 vento: Nord S 31.5
30 Agosto 2026 04:10 tempo osservato: Sereno Sereno 28 34 1014 vento: Nord S 27.8
30 Agosto 2026 03:50 tempo osservato: Sereno Sereno 27 36 1014 vento: Nord S 29.6
30 Agosto 2026 03:30 tempo osservato: Sereno Sereno 28 34 1014 vento: Nord S 24
30 Agosto 2026 03:10 tempo osservato: Sereno Sereno 28 34 1015 vento: Nord S 25.9
30 Agosto 2026 02:50 tempo osservato: Sereno Sereno 28 34 1015 vento: Nord S 24
30 Agosto 2026 02:30 tempo osservato: Sereno Sereno 28 34 1015 vento: Nord S 25.9
30 Agosto 2026 02:10 tempo osservato: Sereno Sereno 29 30 1015 vento: Nord S 24
30 Agosto 2026 01:50 tempo osservato: Sereno Sereno 29 30 1014 vento: Nord S 25.9